map of EUN home
Great Circle Mapper logo
EUN - Airport
Location
City:  El Aaiún, Western Sahara
Near (Alt.):Laâyoune
Name:Hassan International Airport
ICAO:GMML
IATA:EUN

Details
Type:Airport (Aerodrome, Airfield)
Use:Public/Civil, Military, International (customs port of entry)
Latitude:27°09'06"N (27.151667)
Longitude:13°13'09"W (-13.219166)
Datum:WGS 1984
Elevation:207 ft (63 m)
Variation:4.11°W (WMM2015 magnetic declination)
0.11° annual change
Runways:2
Longest:8861 × 148 ft (2701 × 45 m), paved

Time
Time Zone:UTC+0
Local Time:

Weather
METAR:GMML 301000Z 04022KT 9999 FEW017 BKN100 25/18 Q1014 NOSIG
TAF:GMML 300500Z 3006/3112 03018KT CAVOK PROB30 3011/3016 4000 SA
BECMG 3021/3024 BKN015

Related Locations
Nearby:
Farthest:NLK: 12285 mi / 19771 km
Norfolk Island, NF

Find:

   beyond  
but within

Other Information
Maps:
NOTAMs:
Links:
Sources:

  

Sectional Chart

Flight Planning
at skyvector.com

Satellite Image

Google Maps Satellite view

 

Copyright © 2004-2016 Karl L. Swartz. All rights reserved.
The Great Circle Mapper name and logo are trademarks of the Great Circle Mapper.
All other trademarks mentioned herein belong to their respective owners.
Please see credits for attibutions and further copyright information.

  Follow gcmap on Facebook Follow gcmap on Twitter Follow gcmap on Google+ GCmap on LinkedIn

hCard Microformat

Geo Microformat